This is the latest recevied weather packets stored in our database for station/object CT4TX-6. If no packets are shown the sender has not sent any weather packets the latest 10 day(s).
| Time | Temp. | Humidity | Pressure | Rain* | Wind** | Luminosity | Snow |
|---|---|---|---|---|---|---|---|
| 1788566467 | 28.33° C | 53% | 1006.2 hPa | - | - | - | - |
| 1788566381 | 28.33° C | 53% | 1006.1 hPa | - | - | - | - |
| 1788566355 | 28.33° C | 53% | 1006.2 hPa | - | - | - | - |
| 1788566330 | 28.33° C | 53% | 1006.1 hPa | - | - | - | - |
| 1788565675 | 28.89° C | 52% | 1006.3 hPa | - | - | - | - |
| 1788564768 | 28.89° C | 51% | 1006.2 hPa | - | - | - | - |
| 1788563883 | 28.89° C | 52% | 1006.3 hPa | - | - | - | - |
| 1788562966 | 28.89° C | 52% | 1006.5 hPa | - | - | - | - |
| 1788562066 | 28.89° C | 51% | 1006.5 hPa | - | - | - | - |
| 1788561166 | 28.89° C | 50% | 1006.5 hPa | - | - | - | - |
| 1788560265 | 28.89° C | 49% | 1006.5 hPa | - | - | - | - |
| 1788559365 | 28.89° C | 50% | 1006.4 hPa | - | - | - | - |
| 1788558465 | 28.89° C | 47% | 1006.6 hPa | - | - | - | - |
| 1788557565 | 29.44° C | 47% | 1006.7 hPa | - | - | - | - |
| 1788556664 | 28.89° C | 49% | 1006.8 hPa | - | - | - | - |
| 1788555764 | 28.89° C | 51% | 1007.1 hPa | - | - | - | - |
| 1788554864 | 27.78° C | 53% | 1006.9 hPa | - | - | - | - |
| 1788554802 | 28.33° C | 53% | 1006.9 hPa | - | - | - | - |
| 1788554753 | 28.33° C | 53% | 1006.9 hPa | - | - | - | - |
| 1788554720 | 28.33° C | 53% | 1007 hPa | - | - | - | - |
| 1788554692 | 27.78° C | 53% | 1007 hPa | - | - | - | - |
| 1788554643 | 28.33° C | 53% | 1007 hPa | - | - | - | - |
| 1788554611 | 27.78° C | 53% | 1007.1 hPa | - | - | - | - |
| 1788554564 | 27.78° C | 53% | 1007.1 hPa | - | - | - | - |
| 1788554532 | 27.78° C | 53% | 1007.1 hPa | - | - | - | - |
* Rain since midnight (hover to see other rain measurements)
** Current wind speed in m/s (hover to see current wind gust speed)